CW2857 Weather Reports


Display with metric or nautical units.
time (UTC)temp
F
wind
direction
speed
MPH
gust
MPH
rain 1hr
in
rain 24hr
in
rain mn
in
humidity
%
barometer
mb
20260903021059 67 257 9.0 13.0 0.00 0.00 0.00 24 1020.3
20260903020558 67 233 9.0 15.0 0.00 0.00 0.00 23 1020.3
20260903015558 68 176 10.0 14.0 0.00 0.00 0.00 21 1020.0
20260903015058 68 215 6.0 17.0 0.00 0.00 0.00 21 1020.0
20260903014623 69 252 9.0 17.0 0.00 0.00 0.00 20 1020.0
20260903014101 69 227 7.0 14.0 0.00 0.00 0.00 19 1020.0
20260903013557 70 190 9.0 13.0 0.00 0.00 0.00 19 1019.9
20260903013107 70 223 5.0 11.0 0.00 0.00 0.00 19 1020.0
20260903012556 70 190 8.0 15.0 0.00 0.00 0.00 19 1020.0
20260903012056 70 181 6.0 18.0 0.00 0.00 0.00 18 1020.0
20260903011556 70 209 10.0 19.0 0.00 0.00 0.00 18 1020.0
20260903011055 70 209 10.0 19.0 0.00 0.00 0.00 17 1020.1
20260903010556 71 223 9.0 15.0 0.00 0.00 0.00 17 1020.1
20260903010056 71 216 10.0 17.0 0.00 0.00 0.00 19 1020.1
20260903005555 71 203 8.0 15.0 0.00 0.00 0.00 18 1020.0
20260903005056 71 186 11.0 17.0 0.00 0.00 0.00 18 1020.0
20260903004559 72 197 10.0 17.0 0.00 0.00 0.00 17 1020.0
20260903004055 72 187 9.0 18.0 0.00 0.00 0.00 17 1020.0
20260903003555 71 242 8.0 20.0 0.00 0.00 0.00 17 1020.0
20260903003108 72 238 11.0 20.0 0.00 0.00 0.00 17 1020.1
20260903002555 72 232 9.0 19.0 0.00 0.00 0.00 16 1020.1
20260903002055 72 210 11.0 19.0 0.00 0.00 0.00 16 1020.1
20260903001554 72 246 10.0 17.0 0.00 0.00 0.00 16 1020.1
20260903001053 71 221 10.0 20.0 0.00 0.00 0.00 16 1020.0
20260903000553 71 194 11.0 20.0 0.00 0.00 0.00 17 1020.0
20260902235553 71 243 13.0 22.0 0.00 0.00 0.00 16 1020.0
20260902235055 72 234 10.0 22.0 0.00 0.00 0.00 16 1020.1
20260902234553 72 192 11.0 21.0 0.00 0.00 0.00 16 1020.0
20260902234056 73 193 11.0 19.0 0.00 0.00 0.00 17 1019.9
20260902233553 72 228 6.0 19.0 0.00 0.00 0.00 19 1019.8
20260902233052 72 190 8.0 17.0 0.00 0.00 0.00 19 1019.8
20260902232552 72 194 9.0 17.0 0.00 0.00 0.00 20 1019.9
20260902232051 72 245 9.0 21.0 0.00 0.00 0.00 19 1019.9
20260902231551 72 187 10.0 21.0 0.00 0.00 0.00 19 1020.0
20260902231051 73 198 10.0 20.0 0.00 0.00 0.00 19 1019.9
20260902230550 73 185 8.0 18.0 0.00 0.00 0.00 17 1019.9
20260902230054 74 240 6.0 24.0 0.00 0.00 0.00 17 1020.0
20260902225552 73 277 11.0 24.0 0.00 0.00 0.00 18 1020.0
20260902225048 73 181 5.0 15.0 0.00 0.00 0.00 18 1020.0
20260902224605 73 229 7.0 18.0 0.00 0.00 0.00 18 1020.1
20260902224046 72 198 10.0 22.0 0.00 0.00 0.00 20 1019.9
20260902223547 72 249 8.0 22.0 0.00 0.00 0.00 19 1020.1
20260902223047 72 196 10.0 16.0 0.00 0.00 0.00 20 1020.2
20260902222543 71 222 9.0 18.0 0.00 0.00 0.00 21 1020.2
20260902222043 70 182 12.0 20.0 0.00 0.00 0.00 21 1020.3
20260902221544 71 202 10.0 20.0 0.00 0.00 0.00 21 1020.3
20260902221043 71 233 9.0 23.0 0.00 0.00 0.00 22 1020.4
20260902220544 69 227 11.0 23.0 0.00 0.00 0.00 23 1020.5
20260902220043 69 203 12.0 20.0 0.00 0.00 0.00 22 1020.5
20260902215541 70 192 11.0 23.0 0.00 0.00 0.00 23 1020.6
20260902215045 70 186 8.0 22.0 0.00 0.00 0.00 23 1020.6
20260902214608 70 233 11.0 22.0 0.00 0.00 0.00 23 1020.6
20260902214042 70 207 11.0 20.0 0.00 0.00 0.00 23 1020.6
20260902213541 70 231 8.0 24.0 0.00 0.00 0.00 22 1020.7
20260902213042 70 219 8.0 21.0 0.00 0.00 0.00 22 1020.5
20260902212540 70 189 9.0 23.0 0.00 0.00 0.00 23 1020.7
20260902212041 71 216 12.0 23.0 0.00 0.00 0.00 23 1020.6
20260902211539 70 192 10.0 22.0 0.00 0.00 0.00 23 1020.6
20260902211038 69 202 11.0 18.0 0.00 0.00 0.00 24 1020.6
20260902210539 69 248 11.0 18.0 0.00 0.00 0.00 24 1020.7
20260902210041 69 245 10.0 17.0 0.00 0.00 0.00 25 1020.7
20260902205537 69 219 10.0 19.0 0.00 0.00 0.00 25 1020.7
20260902205036 69 238 5.0 12.0 0.00 0.00 0.00 26 1020.7
20260902204535 68 171 1.0 12.0 0.00 0.00 0.00 27 1020.8
20260902204034 68 189 5.0 12.0 0.00 0.00 0.00 27 1020.8
20260902203534 67 190 4.0 12.0 0.00 0.00 0.00 27 1020.8
20260902203035 68 183 6.0 12.0 0.00 0.00 0.00 27 1020.8
20260902202535 68 209 5.0 11.0 0.00 0.00 0.00 28 1020.9
20260902202033 68 197 4.0 11.0 0.00 0.00 0.00 28 1021.0
20260902201536 67 211 2.0 10.0 0.00 0.00 0.00 28 1021.0
20260902201031 66 188 1.0 5.0 0.00 0.00 0.00 27 1021.1
20260902200530 66 201 0.0 9.0 0.00 0.00 0.00 28 1021.1
20260902200030 66 211 1.0 9.0 0.00 0.00 0.00 28 1021.2
20260902195529 66 210 4.0 9.0 0.00 0.00 0.00 28 1021.2
20260902195030 66 246 1.0 8.0 0.00 0.00 0.00 27 1021.2
20260902194537 66 269 0.0 7.0 0.00 0.00 0.00 27 1021.3
20260902194027 65 274 2.0 10.0 0.00 0.00 0.00 28 1021.4
20260902193527 64 348 0.0 4.0 0.00 0.00 0.00 28 1021.5
20260902193025 64 227 0.0 3.0 0.00 0.00 0.00 29 1021.5
20260902192525 64 313 0.0 8.0 0.00 0.00 0.00 29 1021.4
20260902192027 64 196 3.0 8.0 0.00 0.00 0.00 29 1021.6
20260902191524 63 207 0.0 7.0 0.00 0.00 0.00 29 1021.5
20260902191024 64 210 1.0 7.0 0.00 0.00 0.00 29 1021.6
20260902190524 63 264 0.0 7.0 0.00 0.00 0.00 30 1021.6
20260902190024 63 286 0.0 9.0 0.00 0.00 0.00 30 1021.7
20260902185524 63 258 3.0 9.0 0.00 0.00 0.00 30 1021.7
20260902185028 63 226 0.0 8.0 0.00 0.00 0.00 30 1021.7
20260902184522 63 252 2.0 8.0 0.00 0.00 0.00 30 1021.8
20260902184022 62 296 0.0 9.0 0.00 0.00 0.00 30 1021.7
20260902183522 62 254 0.0 9.0 0.00 0.00 0.00 30 1021.8
20260902183022 63 344 0.0 8.0 0.00 0.00 0.00 29 1021.8
20260902182520 63 220 3.0 13.0 0.00 0.00 0.00 28 1021.7
20260902182021 63 188 7.0 14.0 0.00 0.00 0.00 28 1021.8
20260902181521 62 115 3.0 13.0 0.00 0.00 0.00 29 1021.8
20260902181020 61 177 4.0 9.0 0.00 0.00 0.00 30 1021.8
20260902180523 60 208 1.0 14.0 0.00 0.00 0.00 32 1021.7
20260902180020 61 246 4.0 14.0 0.00 0.00 0.00 31 1021.6
20260902175519 60 97 0.0 4.0 0.00 0.00 0.00 32 1021.7
20260902175018 61 5 0.0 1.0 0.00 0.00 0.00 32 1021.7
20260902174524 61 360 0.0 1.0 0.00 0.00 0.00 32 1021.7
20260902174017 60 355 0.0 1.0 0.00 0.00 0.00 32 1021.6
20260902173517 60 29 0.0 0.0 0.00 0.00 0.00 32 1021.6
20260902173016 60 28 0.0 0.0 0.00 0.00 0.00 33 1021.6
20260902172522 60 328 0.0 0.0 0.00 0.00 0.00 32 1021.6
20260902172017 60 331 0.0 0.0 0.00 0.00 0.00 33 1021.6
20260902171517 59 327 0.0 0.0 0.00 0.00 0.00 32 1021.7
20260902171016 59 327 0.0 0.0 0.00 0.00 0.00 33 1021.6
20260902170517 59 319 0.0 0.0 0.00 0.00 0.00 34 1021.6
20260902170015 59 323 0.0 0.0 0.00 0.00 0.00 34 1021.5
20260902165513 58 301 0.0 0.0 0.00 0.00 0.00 34 1021.4
20260902165012 58 306 0.0 1.0 0.00 0.00 0.00 34 1021.3
20260902164521 58 285 0.0 1.0 0.00 0.00 0.00 34 1021.3
20260902164010 58 311 0.0 0.0 0.00 0.00 0.00 34 1021.3
20260902163512 58 293 0.0 4.0 0.00 0.00 0.00 34 1021.2
20260902163010 58 327 0.0 4.0 0.00 0.00 0.00 34 1021.2
20260902162509 58 323 0.0 2.0 0.00 0.00 0.00 34 1021.1
20260902162009 58 338 0.0 2.0 0.00 0.00 0.00 34 1021.0
20260902161521 58 347 0.0 2.0 0.00 0.00 0.00 34 1021.0
20260902161009 58 346 0.0 0.0 0.00 0.00 0.00 34 1021.0
20260902160511 58 330 0.0 0.0 0.00 0.00 0.00 35 1021.2
20260902160009 58 5 0.0 2.0 0.00 0.00 0.00 35 1021.2
20260902155508 58 350 0.0 2.0 0.00 0.00 0.00 36 1021.2
20260902155009 57 5 0.0 4.0 0.00 0.00 0.00 35 1021.2
20260902154514 57 348 1.0 7.0 0.00 0.00 0.00 35 1021.1
20260902154006 57 342 0.0 9.0 0.00 0.00 0.00 36 1021.2
20260902153506 57 306 0.0 5.0 0.00 0.00 0.00 36 1021.2
20260902153006 57 304 0.0 5.0 0.00 0.00 0.00 36 1021.2
20260902152505 57 292 0.0 7.0 0.00 0.00 0.00 36 1021.2
20260902152006 56 271 2.0 7.0 0.00 0.00 0.00 36 1021.2
20260902151504 56 297 0.0 9.0 0.00 0.00 0.00 36 1021.1
20260902151004 56 286 2.0 9.0 0.00 0.00 0.00 36 1021.1
20260902150505 56 319 0.0 3.0 0.00 0.00 0.00 37 1021.0
20260902150002 56 9 0.0 5.0 0.00 0.00 0.00 37 1020.9
20260902145502 56 5 0.0 5.0 0.00 0.00 0.00 36 1020.9
20260902145001 56 23 0.0 7.0 0.00 0.00 0.00 36 1020.8
20260902144602 56 5 1.0 10.0 0.00 0.00 0.00 36 1020.7
20260902144059 56 340 4.0 11.0 0.00 0.00 0.00 36 1020.5
20260902143601 56 277 4.0 11.0 0.00 0.00 0.00 36 1020.4
20260902143059 56 288 1.0 10.0 0.00 0.00 0.00 36 1020.4
20260902142558 56 279 1.0 11.0 0.00 0.00 0.00 36 1020.5
20260902142058 56 300 5.0 12.0 0.00 0.00 0.00 35 1020.4
20260902141557 56 278 6.0 12.0 0.00 0.00 0.00 35 1020.2
20260902141059 55 292 4.0 9.0 0.00 0.00 0.00 36 1020.2
20260902140600 55 251 2.0 8.0 0.00 0.00 0.00 36 1020.2
20260902140106 54 244 1.0 4.0 0.00 0.00 0.00 36 1020.2
20260902135556 53 350 0.0 0.0 0.00 0.00 0.00 37 1020.1
20260902135055 53 45 0.0 2.0 0.00 0.00 0.00 37 1020.3
20260902134555 54 53 0.0 5.0 0.00 0.00 0.00 36 1020.1
20260902134053 54 39 1.0 4.0 0.00 0.00 0.00 36 1020.0
20260902133553 54 105 0.0 1.0 0.00 0.00 0.00 34 1019.8
20260902133102 54 227 0.0 0.0 0.00 0.00 0.00 34 1019.7
20260902132552 55 297 0.0 8.0 0.00 0.00 0.00 34 1019.7
20260902132052 55 282 1.0 8.0 0.00 0.00 0.00 35 1019.7
20260902131559 54 275 0.0 8.0 0.00 0.00 0.00 35 1019.6
20260902131055 54 265 3.0 8.0 0.00 0.00 0.00 35 1019.5
20260902130552 53 288 3.0 8.0 0.00 0.00 0.00 36 1019.4
20260902130052 53 242 1.0 6.0 0.00 0.00 0.00 36 1019.5
20260902125549 53 250 0.0 1.0 0.00 0.00 0.00 36 1019.5
20260902125049 54 74 0.0 2.0 0.00 0.00 0.00 35 1019.7
20260902124551 55 74 0.0 2.0 0.00 0.00 0.00 34 1019.6
20260902124047 55 39 0.0 7.0 0.00 0.00 0.00 32 1019.5
20260902123547 56 279 0.0 10.0 0.00 0.00 0.00 32 1019.2
20260902123048 56 305 5.0 11.0 0.00 0.00 0.00 32 1019.1
20260902122548 56 271 7.0 12.0 0.00 0.00 0.00 32 1019.1
20260902122047 56 272 8.0 12.0 0.00 0.00 0.00 32 1019.1
20260902121558 56 264 8.0 12.0 0.00 0.00 0.00 32 1019.2
20260902121047 55 274 6.0 11.0 0.00 0.00 0.00 31 1019.2
20260902120549 55 273 6.0 13.0 0.00 0.00 0.00 32 1019.2
20260902120047 54 269 8.0 13.0 0.00 0.00 0.00 31 1019.2
20260902115547 54 277 8.0 11.0 0.00 0.00 0.00 31 1019.2
20260902115044 54 265 6.0 9.0 0.00 0.00 0.00 31 1019.3
20260902114550 54 268 0.0 5.0 0.00 0.00 0.00 32 1019.5
20260902114042 54 25 0.0 5.0 0.00 0.00 0.00 31 1019.6
20260902113541 55 19 2.0 4.0 0.00 0.00 0.00 30 1019.4
20260902113052 56 42 1.0 4.0 0.00 0.00 0.00 29 1019.3
20260902112539 56 52 0.0 16.0 0.00 0.00 0.00 27 1019.1
20260902112038 57 288 9.0 16.0 0.00 0.00 0.00 28 1018.8
20260902111538 57 276 11.0 16.0 0.00 0.00 0.00 27 1018.5
20260902111036 57 271 9.0 14.0 0.00 0.00 0.00 27 1018.6
20260902110535 56 251 7.0 12.0 0.00 0.00 0.00 27 1018.6
20260902110034 54 261 5.0 9.0 0.00 0.00 0.00 27 1018.8
20260902105534 54 234 2.0 4.0 0.00 0.00 0.00 27 1018.9
20260902105032 56 275 0.0 1.0 0.00 0.00 0.00 26 1018.8
20260902104544 57 285 0.0 1.0 0.00 0.00 0.00 26 1018.9
20260902104031 58 285 0.0 1.0 0.00 0.00 0.00 25 1018.8
20260902103530 58 285 0.0 5.0 0.00 0.00 0.00 25 1018.8
20260902103031 57 9 0.0 8.0 0.00 0.00 0.00 26 1018.7
20260902102531 57 271 1.0 8.0 0.00 0.00 0.00 26 1018.6
20260902102030 57 242 2.0 7.0 0.00 0.00 0.00 26 1018.4
20260902101536 57 227 1.0 6.0 0.00 0.00 0.00 26 1018.3
20260902101029 57 178 1.0 6.0 0.00 0.00 0.00 27 1018.1
20260902100531 57 205 0.0 8.0 0.00 0.00 0.00 27 1018.2
20260902100029 56 253 1.0 8.0 0.00 0.00 0.00 27 1018.4
20260902095528 56 218 0.0 1.0 0.00 0.00 0.00 28 1018.6
20260902095026 57 298 0.0 1.0 0.00 0.00 0.00 28 1018.7
20260902094524 58 329 0.0 2.0 0.00 0.00 0.00 28 1018.8
20260902094023 59 345 0.0 9.0 0.00 0.00 0.00 27 1018.8
20260902093522 59 348 0.0 10.0 0.00 0.00 0.00 26 1018.8
20260902093025 59 277 2.0 13.0 0.00 0.00 0.00 26 1018.8
20260902092523 59 263 4.0 12.0 0.00 0.00 0.00 27 1018.6
20260902092020 59 238 3.0 13.0 0.00 0.00 0.00 26 1018.5
20260902091519 59 233 6.0 14.0 0.00 0.00 0.00 27 1018.4
20260902091018 59 236 5.0 15.0 0.00 0.00 0.00 27 1018.3
20260902090519 59 267 7.0 15.0 0.00 0.00 0.00 28 1018.2
20260902090017 60 225 7.0 15.0 0.00 0.00 0.00 28 1018.2
20260902085515 60 219 9.0 15.0 0.00 0.00 0.00 28 1018.1
20260902085014 60 200 9.0 21.0 0.00 0.00 0.00 28 1018.1
20260902084514 60 211 12.0 22.0 0.00 0.00 0.00 28 1017.9
20260902084013 60 209 13.0 21.0 0.00 0.00 0.00 28 1017.8
20260902083512 61 232 10.0 22.0 0.00 0.00 0.00 28 1017.9
20260902083011 61 199 11.0 22.0 0.00 0.00 0.00 27 1017.7
20260902082511 61 172 12.0 20.0 0.00 0.00 0.00 27 1017.6
20260902082009 61 192 12.0 21.0 0.00 0.00 0.00 27 1017.6
20260902081512 62 260 12.0 23.0 0.00 0.00 0.00 26 1017.6
20260902081007 62 228 10.0 21.0 0.00 0.00 0.00 24 1017.5
20260902080507 62 235 6.0 16.0 0.00 0.00 0.00 23 1017.5
20260902080005 62 246 10.0 20.0 0.00 0.00 0.00 22 1017.3
20260902075504 61 235 6.0 17.0 0.00 0.00 0.00 25 1017.2
20260902075002 61 190 6.0 17.0 0.00 0.00 0.00 27 1017.2
20260902074502 61 246 5.0 16.0 0.00 0.00 0.00 28 1017.2
20260902074002 61 250 8.0 15.0 0.00 0.00 0.00 28 1017.3
20260902073600 61 250 6.0 15.0 0.00 0.00 0.00 27 1017.3
20260902073100 61 227 10.0 16.0 0.00 0.00 0.00 27 1017.3
20260902072600 61 276 5.0 22.0 0.00 0.00 0.00 27 1017.4
20260902072058 61 219 10.0 22.0 0.00 0.00 0.00 26 1017.4
20260902071557 62 295 6.0 21.0 0.00 0.00 0.00 26 1017.2
20260902071058 62 269 7.0 21.0 0.00 0.00 0.00 26 1017.0
20260902070554 62 239 6.0 11.0 0.00 0.00 0.00 25 1017.0
20260902070052 62 247 5.0 15.0 0.00 0.00 0.00 25 1016.9
20260902065551 62 247 5.0 15.0 0.00 0.00 0.00 24 1016.9
20260902065051 62 240 6.0 16.0 0.00 0.00 0.00 24 1016.7
20260902064552 63 320 7.0 17.0 0.00 0.00 0.00 24 1016.8
20260902064050 63 296 6.0 19.0 0.00 0.00 0.00 24 1016.8
20260902063549 63 238 10.0 19.0 0.00 0.00 0.00 24 1016.6
20260902063048 63 262 7.0 22.0 0.00 0.00 0.00 23 1016.5
20260902062547 63 225 11.0 20.0 0.00 0.00 0.00 23 1016.2
20260902062046 63 238 11.0 22.0 0.00 0.00 0.00 24 1016.1
20260902061549 63 233 15.0 24.0 0.00 0.00 0.00 24 1015.9
20260902061044 64 235 14.0 24.0 0.00 0.00 0.00 24 1015.7
20260902060546 64 192 14.0 27.0 0.00 0.00 0.00 24 1015.4
20260902060042 64 223 15.0 25.0 0.00 0.00 0.00 23 1015.2
20260902055541 64 191 17.0 32.0 0.00 0.00 0.00 23 1015.0
20260902055040 64 247 17.0 32.0 0.00 0.00 0.00 23 1014.9
20260902054542 64 188 17.0 30.0 0.00 0.00 0.00 23 1014.9
20260902054040 65 192 17.0 27.0 0.00 0.00 0.00 22 1014.9
20260902053540 64 209 16.0 28.0 0.00 0.00 0.00 22 1014.8
20260902053040 64 187 14.0 24.0 0.00 0.00 0.00 23 1014.7
20260902052540 65 221 12.0 25.0 0.00 0.00 0.00 23 1014.7
20260902052039 65 233 16.0 26.0 0.00 0.00 0.00 22 1014.6
20260902051538 65 200 18.0 29.0 0.00 0.00 0.00 22 1014.7
20260902051038 65 206 18.0 29.0 0.00 0.00 0.00 22 1014.6
20260902050540 65 226 16.0 32.0 0.00 0.00 0.00 21 1014.5
20260902050038 65 206 17.0 32.0 0.00 0.00 0.00 21 1014.4
20260902045536 65 207 17.0 30.0 0.00 0.00 0.00 21 1014.3
20260902045041 66 209 19.0 30.0 0.00 0.00 0.00 21 1014.1
20260902044541 66 195 20.0 28.0 0.00 0.00 0.00 20 1014.1
20260902044039 66 196 17.0 28.0 0.00 0.00 0.00 20 1014.0
20260902043538 66 238 17.0 30.0 0.00 0.00 0.00 20 1014.0
20260902043043 66 192 18.0 29.0 0.00 0.00 0.00 20 1013.8
20260902042538 66 216 18.0 30.0 0.00 0.00 0.00 20 1014.2
20260902042035 66 278 20.0 34.0 0.00 0.00 0.00 19 1013.7
20260902041534 67 248 18.0 32.0 0.00 0.00 0.00 19 1013.7
20260902041034 67 228 18.0 32.0 0.00 0.00 0.00 19 1014.0
20260902040532 67 197 16.0 29.0 0.00 0.00 0.00 19 1013.9
20260902040032 67 192 15.0 29.0 0.00 0.00 0.00 19 1013.8
20260902035529 67 221 18.0 27.0 0.00 0.00 0.00 19 1013.7
20260902035029 67 207 13.0 29.0 0.00 0.00 0.00 18 1013.7
20260902034529 67 227 14.0 28.0 0.00 0.00 0.00 18 1013.7
20260902034028 67 230 15.0 28.0 0.00 0.00 0.00 19 1013.9
20260902033526 68 263 11.0 26.0 0.00 0.00 0.00 19 1014.0
20260902033027 68 211 14.0 26.0 0.00 0.00 0.00 18 1013.9
20260902032525 68 225 7.0 19.0 0.00 0.00 0.00 18 1013.9
20260902032026 68 254 8.0 20.0 0.00 0.00 0.00 17 1013.9
20260902031535 68 243 11.0 25.0 0.00 0.00 0.00 17 1013.9
20260902031029 69 246 10.0 25.0 0.00 0.00 0.00 17 1013.6
20260902030524 69 224 12.0 29.0 0.00 0.00 0.00 18 1013.6
20260902030028 69 215 14.0 27.0 0.00 0.00 0.00 18 1013.4
20260902025523 69 198 9.0 25.0 0.00 0.00 0.00 18 1013.3
20260902025022 69 229 13.0 24.0 0.00 0.00 0.00 17 1013.4
20260902024522 69 243 12.0 28.0 0.00 0.00 0.00 18 1013.2
20260902024021 69 231 15.0 28.0 0.00 0.00 0.00 18 1013.4
20260902023522 70 200 9.0 23.0 0.00 0.00 0.00 17 1013.3
20260902023030 70 211 14.0 23.0 0.00 0.00 0.00 17 1013.3
20260902022522 70 248 10.0 22.0 0.00 0.00 0.00 17 1013.1
20260902022029 70 244 14.0 23.0 0.00 0.00 0.00 17 1013.1
20260902021520 71 178 13.0 25.0 0.00 0.00 0.00 16 1012.9